Location: Unspecified
(17.6330°N, 0.0000°E)
Time: 09:44:17
(UTC+00:00)

A-11 Canister half - Pass Details

Date: 19 June 2019
Orbit: 1514 x 1685 km, 47.2° (Epoch: 19 July)

Event Time Altitude Azimuth Distance (km) Brightness Sun altitude
Rises 21:03:18 0° 290° (WNW) 4,656 12.5 -30.2°
Reaches altitude 10° 21:07:39 10° 272° (W) 3,667 11.5 -31.0°
Maximum altitude 21:13:15 18° 234° (SW) 3,096 10.6 -31.9°
Enters shadow 21:16:48 14° 208° (SSW) 3,343 10.6 -32.5°
Drops below altitude 10° 21:18:54 10° 195° (SSW) 3,683 - -32.9°
Sets 21:23:21 0° 177° (S) 4,684 - -33.7°
